| time (UTC) | temp F | wind direction | speed MPH | gust MPH | rain 1hr in | rain 24hr in | rain mn in | humidity % | barometer mb |
| 20260503044015 | 57 | 0.0 | 0.0 | 0.00 | 0.02 | 0.02 | 82 | 1022.0 | |
| 20260503043514 | 57 | 0.0 | 0.0 | 0.00 | 0.02 | 0.02 | 83 | 1022.1 | |
| 20260503043011 | 57 | 0.0 | 0.0 | 0.00 | 0.02 | 0.02 | 82 | 1022.0 | |
| 20260503042508 | 57 | 0.0 | 0.0 | 0.00 | 0.02 | 0.02 | 82 | 1021.9 | |
| 20260503042005 | 57 | 0.0 | 0.0 | 0.00 | 0.02 | 0.02 | 82 | 1022.0 | |
| 20260503041503 | 57 | 0.0 | 0.0 | 0.00 | 0.02 | 0.02 | 81 | 1022.0 | |
| 20260503041001 | 57 | 0.0 | 0.0 | 0.00 | 0.02 | 0.02 | 81 | 1021.9 | |
| 20260503040458 | 57 | 0.0 | 0.0 | 0.00 | 0.02 | 0.02 | 81 | 1021.9 | |
| 20260503035955 | 58 | 0.0 | 0.0 | 0.00 | 0.02 | 0.02 | 81 | 1021.9 | |
| 20260503035453 | 58 | 0.0 | 0.0 | 0.00 | 0.02 | 0.02 | 81 | 1021.9 | |
| 20260503034951 | 58 | 0.0 | 0.0 | 0.00 | 0.02 | 0.02 | 80 | 1021.9 | |
| 20260503034448 | 58 | 0.0 | 0.0 | 0.00 | 0.02 | 0.02 | 80 | 1021.9 | |
| 20260503033945 | 58 | 0.0 | 0.0 | 0.00 | 0.02 | 0.02 | 80 | 1021.8 | |
| 20260503033443 | 58 | 0.0 | 0.0 | 0.00 | 0.02 | 0.02 | 79 | 1021.7 | |
| 20260503032941 | 59 | 0.0 | 0.0 | 0.00 | 0.02 | 0.02 | 79 | 1021.7 | |
| 20260503032438 | 59 | 0.0 | 0.0 | 0.00 | 0.02 | 0.02 | 78 | 1021.7 | |
| 20260503031929 | 59 | 0.0 | 0.0 | 0.00 | 0.02 | 0.02 | 78 | 1021.7 | |
| 20260503031427 | 59 | 0.0 | 0.0 | 0.00 | 0.02 | 0.02 | 77 | 1021.6 | |
| 20260503030925 | 59 | 0.0 | 0.0 | 0.00 | 0.02 | 0.02 | 76 | 1021.5 | |
| 20260503030422 | 60 | 0.0 | 0.0 | 0.00 | 0.02 | 0.02 | 75 | 1021.5 | |
| 20260503025919 | 60 | 0.0 | 0.0 | 0.00 | 0.02 | 0.02 | 75 | 1021.6 | |
| 20260503025417 | 60 | 0.0 | 0.0 | 0.00 | 0.02 | 0.02 | 74 | 1021.5 | |
| 20260503024915 | 61 | 0.0 | 0.0 | 0.00 | 0.02 | 0.02 | 74 | 1021.5 | |
| 20260503024411 | 61 | 0.0 | 0.0 | 0.00 | 0.02 | 0.02 | 72 | 1021.4 | |
| 20260503023909 | 61 | 0.0 | 0.0 | 0.00 | 0.02 | 0.02 | 71 | 1021.3 | |
| 20260503023405 | 61 | 0.0 | 0.0 | 0.00 | 0.02 | 0.02 | 68 | 1021.1 | |
| 20260503022903 | 61 | 0.0 | 0.0 | 0.00 | 0.02 | 0.02 | 68 | 1021.0 | |
| 20260503022401 | 62 | 0.0 | 0.0 | 0.00 | 0.02 | 0.02 | 67 | 1020.9 | |
| 20260503021859 | 62 | 0.0 | 0.0 | 0.00 | 0.02 | 0.02 | 67 | 1020.9 | |
| 20260503021355 | 62 | 0.0 | 0.0 | 0.00 | 0.02 | 0.02 | 67 | 1020.8 | |
| 20260503020853 | 62 | 0.0 | 0.0 | 0.00 | 0.02 | 0.02 | 66 | 1020.8 | |
| 20260503020351 | 62 | 0.0 | 0.0 | 0.00 | 0.02 | 0.02 | 65 | 1020.9 | |
| 20260503015849 | 63 | 0.0 | 0.0 | 0.00 | 0.02 | 0.02 | 64 | 1020.8 | |
| 20260503015345 | 63 | 0.0 | 0.0 | 0.00 | 0.02 | 0.02 | 64 | 1020.8 | |
| 20260503014843 | 63 | 0.0 | 0.0 | 0.00 | 0.02 | 0.02 | 63 | 1020.7 | |
| 20260503014341 | 64 | 0.0 | 0.0 | 0.00 | 0.02 | 0.02 | 62 | 1020.6 | |
| 20260503013839 | 64 | 0.0 | 0.0 | 0.00 | 0.02 | 0.02 | 61 | 1020.7 | |
| 20260503013335 | 65 | 0.0 | 0.0 | 0.00 | 0.02 | 0.02 | 60 | 1020.7 | |
| 20260503012833 | 65 | 0.0 | 0.0 | 0.00 | 0.02 | 0.02 | 57 | 1020.7 | |
| 20260503012331 | 66 | 0.0 | 0.0 | 0.00 | 0.02 | 0.02 | 56 | 1020.6 | |
| 20260503011829 | 66 | 0.0 | 0.0 | 0.00 | 0.02 | 0.02 | 56 | 1020.5 | |
| 20260503011325 | 67 | 0.0 | 0.0 | 0.00 | 0.02 | 0.02 | 55 | 1020.4 | |
| 20260503010823 | 68 | 0.0 | 0.0 | 0.00 | 0.02 | 0.02 | 52 | 1020.4 | |
| 20260503010320 | 68 | 0.0 | 0.0 | 0.00 | 0.02 | 0.02 | 51 | 1020.4 | |
| 20260503005819 | 69 | 0.0 | 0.0 | 0.00 | 0.02 | 0.02 | 52 | 1020.4 | |
| 20260503005314 | 70 | 0.0 | 0.0 | 0.00 | 0.02 | 0.02 | 49 | 1020.3 | |
| 20260503004813 | 71 | 0.0 | 0.0 | 0.00 | 0.02 | 0.02 | 48 | 1020.3 | |
| 20260503004310 | 71 | 0.0 | 0.0 | 0.00 | 0.02 | 0.02 | 47 | 1020.2 | |
| 20260503003809 | 72 | 0.0 | 0.0 | 0.00 | 0.02 | 0.02 | 47 | 1020.2 | |
| 20260503003304 | 73 | 0.0 | 0.0 | 0.00 | 0.02 | 0.02 | 45 | 1020.2 | |
| 20260503002802 | 74 | 0.0 | 0.0 | 0.00 | 0.02 | 0.02 | 44 | 1020.3 | |
| 20260503002300 | 74 | 0.0 | 0.0 | 0.00 | 0.02 | 0.02 | 45 | 1020.3 | |
| 20260503001758 | 74 | 0.0 | 0.0 | 0.00 | 0.02 | 0.02 | 45 | 1020.2 | |
| 20260503001254 | 74 | 0.0 | 0.0 | 0.00 | 0.02 | 0.02 | 44 | 1020.1 | |
| 20260503000752 | 74 | 0.0 | 0.0 | 0.00 | 0.02 | 0.02 | 43 | 1020.2 | |
| 20260503000250 | 74 | 0.0 | 0.0 | 0.00 | 0.02 | 0.02 | 44 | 1020.2 | |
| 20260502235746 | 75 | 0.0 | 0.0 | 0.00 | 0.02 | 0.02 | 42 | 1020.1 | |
| 20260502235244 | 75 | 0.0 | 0.0 | 0.00 | 0.02 | 0.02 | 42 | 1020.0 | |
| 20260502234742 | 75 | 0.0 | 1.0 | 0.00 | 0.02 | 0.02 | 41 | 1020.0 | |
| 20260502234239 | 75 | 0.0 | 1.0 | 0.00 | 0.02 | 0.02 | 39 | 1020.0 | |
| 20260502233736 | 76 | 0.0 | 1.0 | 0.00 | 0.02 | 0.02 | 39 | 1020.0 | |
| 20260502233234 | 76 | 0.0 | 0.0 | 0.00 | 0.02 | 0.02 | 40 | 1020.0 | |
| 20260502232732 | 76 | 0.0 | 0.0 | 0.00 | 0.02 | 0.02 | 39 | 1020.0 | |
| 20260502232228 | 76 | 0.0 | 0.0 | 0.00 | 0.02 | 0.02 | 42 | 1020.1 | |
| 20260502231726 | 77 | 0.0 | 0.0 | 0.00 | 0.02 | 0.02 | 40 | 1020.0 | |
| 20260502231224 | 76 | 0.0 | 0.0 | 0.00 | 0.02 | 0.02 | 43 | 1020.0 | |
| 20260502230722 | 76 | 0.0 | 0.0 | 0.00 | 0.02 | 0.02 | 44 | 1020.0 | |
| 20260502230218 | 76 | 0.0 | 1.0 | 0.00 | 0.02 | 0.02 | 42 | 1020.0 | |
| 20260502225716 | 76 | 0.0 | 1.0 | 0.00 | 0.13 | 0.02 | 42 | 1019.9 | |
| 20260502225214 | 76 | 0.0 | 2.0 | 0.00 | 0.13 | 0.02 | 41 | 1020.0 | |
| 20260502224712 | 76 | 0.0 | 4.0 | 0.00 | 0.13 | 0.02 | 41 | 1020.0 | |
| 20260502224208 | 76 | 0.0 | 4.0 | 0.00 | 0.13 | 0.02 | 40 | 1020.0 | |
| 20260502223706 | 77 | 0.0 | 1.0 | 0.00 | 0.13 | 0.02 | 44 | 1020.0 | |
| 20260502223204 | 77 | 0.0 | 1.0 | 0.00 | 0.13 | 0.02 | 42 | 1020.0 | |
| 20260502222702 | 77 | 0.0 | 0.0 | 0.00 | 0.13 | 0.02 | 41 | 1020.1 | |
| 20260502222158 | 76 | 0.0 | 1.0 | 0.00 | 0.13 | 0.02 | 42 | 1020.1 | |
| 20260502221656 | 76 | 0.0 | 1.0 | 0.00 | 0.13 | 0.02 | 44 | 1020.2 | |
| 20260502221154 | 76 | 0.0 | 1.0 | 0.00 | 0.13 | 0.02 | 44 | 1020.1 | |
| 20260502220652 | 76 | 0.0 | 1.0 | 0.00 | 0.13 | 0.02 | 40 | 1020.1 | |
| 20260502220148 | 76 | 0.0 | 1.0 | 0.00 | 0.13 | 0.02 | 43 | 1020.1 | |
| 20260502215646 | 76 | 0.0 | 2.0 | 0.00 | 0.24 | 0.02 | 46 | 1020.1 | |
| 20260502215144 | 76 | 0.0 | 5.0 | 0.00 | 0.24 | 0.02 | 46 | 1020.2 | |
| 20260502214642 | 76 | 0.0 | 5.0 | 0.00 | 0.24 | 0.02 | 45 | 1020.3 | |
| 20260502214138 | 76 | 0.0 | 2.0 | 0.00 | 0.24 | 0.02 | 47 | 1020.3 | |
| 20260502213636 | 75 | 0.0 | 1.0 | 0.00 | 0.24 | 0.02 | 48 | 1020.3 | |
| 20260502213134 | 75 | 0.0 | 1.0 | 0.00 | 0.24 | 0.02 | 46 | 1020.4 | |
| 20260502212632 | 75 | 0.0 | 4.0 | 0.00 | 0.24 | 0.02 | 45 | 1020.5 | |
| 20260502212128 | 76 | 0.0 | 3.0 | 0.00 | 0.24 | 0.02 | 45 | 1020.6 | |
| 20260502211626 | 76 | 0.0 | 3.0 | 0.00 | 0.24 | 0.02 | 46 | 1020.7 | |
| 20260502211122 | 76 | 0.0 | 1.0 | 0.00 | 0.24 | 0.02 | 44 | 1020.8 | |
| 20260502210620 | 76 | 0.0 | 1.0 | 0.00 | 0.24 | 0.02 | 45 | 1020.9 | |
| 20260502210118 | 76 | 0.0 | 2.0 | 0.00 | 0.24 | 0.02 | 46 | 1020.9 | |
| 20260502205616 | 76 | 0.0 | 2.0 | 0.00 | 0.27 | 0.02 | 45 | 1021.0 | |
| 20260502205112 | 76 | 0.0 | 2.0 | 0.00 | 0.27 | 0.02 | 46 | 1021.1 | |
| 20260502204610 | 76 | 0.0 | 2.0 | 0.00 | 0.27 | 0.02 | 43 | 1021.1 | |
| 20260502204108 | 76 | 0.0 | 1.0 | 0.00 | 0.27 | 0.02 | 45 | 1021.2 | |
| 20260502203606 | 75 | 0.0 | 3.0 | 0.00 | 0.27 | 0.02 | 45 | 1021.2 | |
| 20260502203102 | 75 | 0.0 | 3.0 | 0.00 | 0.27 | 0.02 | 48 | 1021.3 | |
| 20260502202600 | 75 | 0.0 | 2.0 | 0.00 | 0.27 | 0.02 | 43 | 1021.3 | |
| 20260502202058 | 75 | 0.0 | 2.0 | 0.00 | 0.27 | 0.02 | 46 | 1021.3 | |
| 20260502201556 | 75 | 0.0 | 4.0 | 0.00 | 0.27 | 0.02 | 45 | 1021.3 | |
| 20260502201052 | 75 | 0.0 | 4.0 | 0.00 | 0.27 | 0.02 | 44 | 1021.5 | |
| 20260502200550 | 75 | 0.0 | 5.0 | 0.00 | 0.27 | 0.02 | 41 | 1021.4 | |
| 20260502200048 | 75 | 0.0 | 5.0 | 0.00 | 0.27 | 0.02 | 46 | 1021.4 | |
| 20260502195546 | 74 | 0.0 | 5.0 | 0.00 | 0.34 | 0.02 | 45 | 1021.4 | |
| 20260502195042 | 74 | 0.0 | 5.0 | 0.00 | 0.34 | 0.02 | 44 | 1021.5 | |
| 20260502194540 | 74 | 0.0 | 3.0 | 0.00 | 0.34 | 0.02 | 45 | 1021.5 | |
| 20260502194038 | 74 | 0.0 | 3.0 | 0.00 | 0.34 | 0.02 | 47 | 1021.5 | |
| 20260502193536 | 74 | 0.0 | 3.0 | 0.00 | 0.34 | 0.02 | 45 | 1021.5 | |
| 20260502193035 | 74 | 0.0 | 3.0 | 0.00 | 0.34 | 0.02 | 49 | 1021.5 | |
| 20260502192531 | 74 | 13 | 1.0 | 3.0 | 0.00 | 0.34 | 0.02 | 46 | 1021.5 |
| 20260502192029 | 74 | 0.0 | 1.0 | 0.00 | 0.34 | 0.02 | 48 | 1021.6 | |
| 20260502191527 | 73 | 0.0 | 1.0 | 0.00 | 0.34 | 0.02 | 53 | 1021.6 | |
| 20260502191024 | 73 | 0.0 | 5.0 | 0.00 | 0.34 | 0.02 | 45 | 1021.6 | |
| 20260502190521 | 73 | 0.0 | 5.0 | 0.00 | 0.34 | 0.02 | 45 | 1021.6 | |
| 20260502190019 | 73 | 0.0 | 3.0 | 0.00 | 0.34 | 0.02 | 51 | 1021.6 | |
| 20260502185517 | 73 | 0.0 | 6.0 | 0.00 | 0.70 | 0.02 | 48 | 1021.6 | |
| 20260502185014 | 73 | 0.0 | 6.0 | 0.00 | 0.70 | 0.02 | 48 | 1021.7 | |
| 20260502184511 | 73 | 0.0 | 3.0 | 0.00 | 0.70 | 0.02 | 51 | 1021.8 | |
| 20260502184009 | 72 | 0.0 | 3.0 | 0.00 | 0.70 | 0.02 | 51 | 1021.7 | |
| 20260502183507 | 72 | 0.0 | 3.0 | 0.00 | 0.70 | 0.02 | 53 | 1021.8 | |
| 20260502182501 | 71 | 15 | 1.0 | 5.0 | 0.00 | 0.70 | 0.02 | 53 | 1022.0 |
| 20260502181959 | 71 | 0.0 | 5.0 | 0.00 | 0.70 | 0.02 | 54 | 1022.1 | |
| 20260502181457 | 71 | 16 | 1.0 | 5.0 | 0.01 | 0.70 | 0.02 | 54 | 1022.3 |
| 20260502180954 | 71 | 0.0 | 4.0 | 0.01 | 0.70 | 0.02 | 58 | 1022.4 | |
| 20260502180451 | 71 | 0.0 | 5.0 | 0.01 | 0.70 | 0.02 | 60 | 1022.5 | |
| 20260502170421 | 68 | 0.0 | 4.0 | 0.00 | 0.69 | 0.01 | 61 | 1023.3 | |
| 20260502163908 | 67 | 0.0 | 6.0 | 0.00 | 0.69 | 0.01 | 61 | 1023.4 | |
| 20260502163405 | 67 | 49 | 1.0 | 6.0 | 0.00 | 0.69 | 0.01 | 62 | 1023.4 |
| 20260502162903 | 67 | 0.0 | 4.0 | 0.00 | 0.69 | 0.01 | 63 | 1023.4 | |
| 20260502162401 | 66 | 0.0 | 4.0 | 0.00 | 0.69 | 0.01 | 62 | 1023.4 | |
| 20260502161858 | 66 | 0.0 | 2.0 | 0.00 | 0.69 | 0.01 | 65 | 1023.5 | |
| 20260502161355 | 65 | 0.0 | 4.0 | 0.00 | 0.69 | 0.01 | 62 | 1023.5 | |
| 20260502160853 | 65 | 1.0 | 4.0 | 0.00 | 0.69 | 0.01 | 61 | 1023.6 | |
| 20260502160351 | 65 | 0.0 | 2.0 | 0.00 | 0.69 | 0.01 | 62 | 1023.6 | |
| 20260502152329 | 62 | 51 | 1.0 | 2.0 | 0.00 | 0.92 | 0.01 | 71 | 1023.5 |
| 20260502151829 | 62 | 0.0 | 3.0 | 0.00 | 0.92 | 0.01 | 71 | 1023.4 | |
| 20260502151325 | 61 | 0.0 | 5.0 | 0.00 | 0.92 | 0.01 | 71 | 1023.4 | |
| 20260502150822 | 61 | 0.0 | 5.0 | 0.00 | 0.92 | 0.01 | 72 | 1023.4 | |
| 20260502150319 | 61 | 0.0 | 3.0 | 0.00 | 0.92 | 0.01 | 73 | 1023.4 | |
| 20260502130722 | 50 | 0.0 | 2.0 | 0.00 | 1.36 | 0.01 | 94 | 1022.3 | |
| 20260502130218 | 50 | 0.0 | 2.0 | 0.00 | 1.36 | 0.01 | 94 | 1022.3 | |
| 20260502123706 | 48 | 0.0 | 0.0 | 0.00 | 1.37 | 0.01 | 95 | 1021.8 | |
| 20260502123202 | 48 | 0.0 | 0.0 | 0.00 | 1.37 | 0.01 | 95 | 1021.8 | |
| 20260502122701 | 48 | 0.0 | 0.0 | 0.00 | 1.37 | 0.01 | 95 | 1021.7 | |
| 20260502122158 | 48 | 0.0 | 0.0 | 0.00 | 1.37 | 0.01 | 95 | 1021.6 | |
| 20260502121656 | 48 | 0.0 | 0.0 | 0.00 | 1.37 | 0.01 | 95 | 1021.5 | |
| 20260502121152 | 48 | 0.0 | 0.0 | 0.00 | 1.37 | 0.01 | 95 | 1021.4 | |
| 20260502120651 | 47 | 0.0 | 0.0 | 0.00 | 1.37 | 0.01 | 95 | 1021.4 | |
| 20260502120148 | 47 | 0.0 | 0.0 | 0.00 | 1.37 | 0.01 | 95 | 1021.3 | |
| 20260502115648 | 47 | 0.0 | 0.0 | 0.00 | 1.55 | 0.01 | 94 | 1021.1 | |
| 20260502115142 | 47 | 0.0 | 0.0 | 0.00 | 1.55 | 0.01 | 94 | 1021.1 | |
| 20260502114641 | 47 | 0.0 | 0.0 | 0.00 | 1.55 | 0.01 | 94 | 1020.9 | |
| 20260502114138 | 47 | 0.0 | 0.0 | 0.00 | 1.55 | 0.01 | 94 | 1020.8 | |
| 20260502113636 | 48 | 0.0 | 0.0 | 0.00 | 1.55 | 0.01 | 94 | 1020.8 | |
| 20260502113132 | 48 | 0.0 | 0.0 | 0.00 | 1.55 | 0.01 | 94 | 1020.8 | |
| 20260502112631 | 48 | 0.0 | 0.0 | 0.00 | 1.55 | 0.01 | 94 | 1020.8 | |
| 20260502112128 | 48 | 0.0 | 0.0 | 0.00 | 1.55 | 0.01 | 94 | 1020.7 | |
| 20260502111626 | 48 | 0.0 | 0.0 | 0.00 | 1.55 | 0.01 | 94 | 1020.6 | |
| 20260502111122 | 48 | 0.0 | 0.0 | 0.00 | 1.55 | 0.01 | 95 | 1020.5 | |
| 20260502110621 | 48 | 0.0 | 0.0 | 0.00 | 1.55 | 0.01 | 95 | 1020.4 | |
| 20260502110118 | 48 | 0.0 | 0.0 | 0.00 | 1.55 | 0.01 | 94 | 1020.3 | |
| 20260502105616 | 48 | 0.0 | 0.0 | 0.00 | 1.70 | 0.01 | 94 | 1020.1 | |
| 20260502105112 | 48 | 0.0 | 0.0 | 0.00 | 1.70 | 0.01 | 94 | 1020.1 | |
| 20260502104610 | 48 | 0.0 | 0.0 | 0.00 | 1.70 | 0.01 | 94 | 1019.9 | |
| 20260502104108 | 48 | 0.0 | 0.0 | 0.00 | 1.70 | 0.01 | 94 | 1019.8 | |
| 20260502103605 | 48 | 0.0 | 0.0 | 0.00 | 1.70 | 0.01 | 94 | 1019.5 | |
| 20260502103102 | 48 | 0.0 | 0.0 | 0.00 | 1.70 | 0.01 | 94 | 1019.5 | |
| 20260502102600 | 48 | 0.0 | 0.0 | 0.00 | 1.70 | 0.01 | 94 | 1019.4 | |
| 20260502102058 | 48 | 0.0 | 0.0 | 0.00 | 1.70 | 0.01 | 94 | 1019.4 | |
| 20260502101557 | 48 | 0.0 | 0.0 | 0.00 | 1.70 | 0.01 | 94 | 1019.4 | |
| 20260502101052 | 48 | 0.0 | 0.0 | 0.00 | 1.70 | 0.01 | 94 | 1019.4 | |
| 20260502100550 | 48 | 0.0 | 0.0 | 0.00 | 1.70 | 0.01 | 94 | 1019.3 | |
| 20260502091525 | 48 | 0.0 | 0.0 | 0.00 | 1.72 | 0.01 | 95 | 1019.3 | |
| 20260502091023 | 48 | 0.0 | 0.0 | 0.00 | 1.72 | 0.01 | 95 | 1019.3 | |
| 20260502090520 | 48 | 0.0 | 0.0 | 0.00 | 1.72 | 0.01 | 95 | 1019.2 | |
| 20260502071424 | 50 | 0.0 | 0.0 | 0.00 | 1.80 | 0.00 | 95 | 1019.0 | |
| 20260502070920 | 50 | 0.0 | 0.0 | 0.00 | 1.80 | 0.00 | 95 | 1019.0 | |
| 20260502070419 | 50 | 0.0 | 0.0 | 0.00 | 1.80 | 0.00 | 95 | 1019.0 | |
| 20260502065916 | 50 | 0.0 | 0.0 | 0.00 | 1.81 | 0.00 | 95 | 1019.1 | |
| 20260502065414 | 50 | 0.0 | 0.0 | 0.00 | 1.81 | 0.00 | 95 | 1019.1 | |
| 20260502064910 | 50 | 0.0 | 0.0 | 0.00 | 1.81 | 0.00 | 95 | 1019.1 | |
| 20260502064409 | 50 | 0.0 | 0.0 | 0.00 | 1.81 | 0.00 | 95 | 1019.0 | |
| 20260502063906 | 50 | 0.0 | 0.0 | 0.00 | 1.81 | 0.00 | 95 | 1019.0 | |
| 20260502063403 | 50 | 0.0 | 0.0 | 0.00 | 1.81 | 0.00 | 95 | 1018.9 | |
| 20260502062900 | 50 | 0.0 | 0.0 | 0.00 | 1.81 | 0.00 | 95 | 1018.9 | |
| 20260502062358 | 50 | 0.0 | 0.0 | 0.00 | 1.81 | 0.00 | 94 | 1019.0 | |
| 20260502061856 | 50 | 0.0 | 0.0 | 0.00 | 1.81 | 0.00 | 94 | 1019.0 | |
| 20260502060850 | 51 | 0.0 | 0.0 | 0.00 | 1.81 | 0.00 | 94 | 1018.8 | |
| 20260502060348 | 51 | 0.0 | 0.0 | 0.00 | 1.81 | 0.00 | 94 | 1018.8 | |
| 20260502055846 | 51 | 0.0 | 0.0 | 0.00 | 1.87 | 0.00 | 94 | 1018.8 | |
| 20260502055343 | 51 | 0.0 | 0.0 | 0.00 | 1.87 | 0.00 | 94 | 1018.9 | |
| 20260502054840 | 51 | 0.0 | 0.0 | 0.00 | 1.87 | 0.00 | 94 | 1019.0 | |
| 20260502054338 | 51 | 0.0 | 0.0 | 0.00 | 1.87 | 0.00 | 94 | 1018.9 | |
| 20260502053836 | 51 | 0.0 | 0.0 | 0.00 | 1.87 | 0.00 | 94 | 1019.1 | |
| 20260502053333 | 51 | 0.0 | 0.0 | 0.00 | 1.87 | 0.00 | 94 | 1019.1 | |
| 20260502052830 | 51 | 0.0 | 0.0 | 0.00 | 1.87 | 0.00 | 94 | 1019.0 | |
| 20260502052328 | 51 | 0.0 | 0.0 | 0.00 | 1.87 | 0.00 | 94 | 1018.9 | |
| 20260502051826 | 51 | 0.0 | 0.0 | 0.00 | 1.87 | 0.00 | 94 | 1018.9 | |
| 20260502051323 | 51 | 0.0 | 0.0 | 0.00 | 1.87 | 0.00 | 94 | 1018.8 | |
| 20260502050820 | 52 | 0.0 | 0.0 | 0.00 | 1.87 | 0.00 | 94 | 1018.9 | |
| 20260502050318 | 52 | 0.0 | 0.0 | 0.00 | 1.87 | 0.00 | 94 | 1018.8 | |
| 20260502045815 | 52 | 0.0 | 0.0 | 0.00 | 1.88 | 1.87 | 94 | 1018.7 | |
| 20260502045313 | 52 | 0.0 | 0.0 | 0.00 | 1.88 | 1.87 | 94 | 1018.6 | |
| 20260502044809 | 52 | 0.0 | 0.0 | 0.00 | 1.88 | 1.87 | 94 | 1018.6 | |
| 20260502044308 | 52 | 0.0 | 0.0 | 0.00 | 1.88 | 1.87 | 94 | 1018.7 |